DW8458 Weather Reports


time (UTC)temp
C
wind
direction
speed
KPH
gust
KPH
rain 1hr
cm
rain 24hr
cm
rain mn
cm
humidity
%
barometer
mb
20260510210032 5 98 1.6 4.8 0.00 0.00 0.00 72 1014.4
20260510204528 5 103 1.6 4.8 0.00 0.00 0.00 71 1014.5
20260510203025 6 103 1.6 8.0 0.00 0.00 0.00 68 1014.7
20260510201521 6 103 3.2 8.0 0.00 0.00 0.00 68 1014.7
20260510200021 7 103 1.6 8.0 0.00 0.00 0.00 67 1014.9
20260510194521 7 103 3.2 8.0 0.00 0.00 0.00 66 1014.9
20260510193017 7 103 3.2 8.0 0.00 0.00 0.00 65 1015.0
20260510191525 8 103 3.2 11.3 0.00 0.00 0.00 64 1015.1
20260510190018 8 103 3.2 9.7 0.00 0.00 0.00 62 1015.2
20260510184512 9 103 1.6 6.4 0.00 0.00 0.00 60 1015.4
20260510183013 10 103 0.0 6.4 0.00 0.00 0.00 59 1015.5
20260510181511 10 103 1.6 9.7 0.00 0.00 0.00 58 1015.5
20260510180010 11 103 1.6 8.0 0.00 0.00 0.00 55 1015.5
20260510174509 11 103 1.6 6.4 0.00 0.00 0.00 53 1015.6
20260510173008 11 103 3.2 6.4 0.00 0.00 0.00 55 1015.6
20260510171510 11 103 3.2 8.0 0.00 0.00 0.00 56 1015.7
20260510170007 11 103 3.2 6.4 0.00 0.00 0.00 60 1015.8
20260510164510 12 103 3.2 9.7 0.00 0.00 0.00 54 1016.0
20260510163004 12 103 3.2 8.0 0.00 0.00 0.00 53 1016.2
20260510161600 13 103 4.8 16.1 0.00 0.00 0.00 52 1016.4
20260510160129 13 103 6.4 17.7 0.00 0.00 0.00 52 1016.5
20260510154607 13 103 3.2 12.9 0.00 0.00 0.00 53 1016.7
20260510153057 13 103 4.8 8.0 0.00 0.00 0.00 52 1016.8
20260510151555 13 103 3.2 25.7 0.00 0.00 0.00 53 1016.9
20260510150059 13 103 4.8 14.5 0.00 0.00 0.00 55 1016.9
20260510144609 13 103 4.8 9.7 0.00 0.00 0.00 54 1017.1
20260510143050 13 103 3.2 16.1 0.00 0.00 0.00 56 1017.3
20260510141550 13 103 3.2 20.9 0.00 0.00 0.00 55 1017.3
20260510140047 13 103 3.2 11.3 0.00 0.00 0.00 58 1017.4
20260510134551 13 103 6.4 16.1 0.00 0.00 0.00 56 1017.5
20260510133044 12 103 4.8 20.9 0.00 0.00 0.00 57 1017.6
20260510131546 13 103 6.4 11.3 0.00 0.00 0.00 58 1017.7
20260510130041 12 103 4.8 12.9 0.00 0.00 0.00 56 1017.8
20260510124542 13 103 6.4 16.1 0.00 0.00 0.00 60 1018.0
20260510123037 12 103 1.6 11.3 0.00 0.00 0.00 61 1018.2
20260510121535 12 103 3.2 9.7 0.00 0.00 0.00 60 1018.4
20260510120032 12 103 4.8 11.3 0.00 0.00 0.00 59 1018.5
20260510114530 12 103 3.2 17.7 0.00 0.00 0.00 60 1018.6
20260510113028 12 103 3.2 16.1 0.00 0.00 0.00 61 1018.8
20260510111526 11 103 6.4 22.5 0.00 0.00 0.00 62 1019.0
20260510110036 12 103 6.4 11.3 0.00 0.00 0.00 58 1019.1
20260510104524 12 103 4.8 12.9 0.00 0.00 0.00 60 1019.3
20260510103023 11 103 4.8 16.1 0.00 0.00 0.00 65 1019.3
20260510101518 11 103 4.8 12.9 0.00 0.00 0.00 65 1019.5
20260510100017 11 103 6.4 14.5 0.00 0.00 0.00 66 1019.6
20260510094535 10 103 3.2 11.3 0.00 0.00 0.00 72 1019.6
20260510093012 9 103 4.8 12.9 0.00 0.00 0.00 73 1019.9
20260510091517 9 103 4.8 19.3 0.00 0.00 0.00 73 1020.0
20260510090013 9 103 3.2 11.3 0.00 0.00 0.00 73 1020.0
20260510084507 9 103 1.6 14.5 0.00 0.00 0.00 74 1020.0
20260510083005 8 103 4.8 17.7 0.00 0.00 0.00 75 1020.0
20260510081504 8 103 6.4 14.5 0.00 0.00 0.00 74 1020.0
20260510080003 8 103 4.8 16.1 0.00 0.00 0.00 75 1019.9
20260510074502 8 103 4.8 19.3 0.00 0.00 0.00 77 1019.9
20260510073002 8 103 4.8 20.9 0.00 0.00 0.00 77 1019.8
20260510071601 8 103 3.2 16.1 0.00 0.00 0.00 77 1019.9
20260510070058 7 103 4.8 14.5 0.00 0.00 0.00 78 1019.8
20260510064556 7 103 6.4 19.3 0.00 0.00 0.00 79 1019.8
20260510063053 7 103 3.2 12.9 0.00 0.00 0.00 81 1019.8
20260510061552 7 103 4.8 16.1 0.00 0.00 0.00 81 1019.8
20260510060050 7 103 3.2 9.7 0.00 0.00 0.00 82 1019.6
20260510054548 7 103 3.2 14.5 0.00 0.00 0.00 81 1019.7
20260510053058 7 103 3.2 12.9 0.00 0.00 0.00 81 1019.7
20260510051548 7 103 6.4 16.1 0.00 0.00 0.00 82 1019.8
20260510050045 7 103 6.4 16.1 0.00 0.00 0.00 83 1019.6
20260510044538 7 103 6.4 17.7 0.00 0.00 0.00 84 1019.6
20260510043045 7 103 3.2 16.1 0.00 0.00 0.00 84 1019.4
20260510041536 7 103 4.8 17.7 0.00 0.00 0.00 85 1019.5
20260510040041 7 103 4.8 16.1 0.00 0.00 0.00 85 1019.3
20260510034533 8 103 6.4 20.9 0.00 0.00 0.00 85 1019.4
20260510033031 8 103 6.4 16.1 0.00 0.00 0.00 84 1019.6
20260510031529 8 103 6.4 16.1 0.00 0.00 0.00 85 1020.0
20260510030026 8 103 3.2 12.9 0.00 0.00 0.00 85 1020.0
20260510024526 8 103 3.2 11.3 0.00 0.00 0.00 85 1019.9
20260510023025 8 103 3.2 11.3 0.00 0.00 0.00 85 1020.0
20260510021537 8 103 4.8 16.1 0.00 0.00 0.00 85 1020.1
20260510020023 8 103 4.8 12.9 0.00 0.00 0.00 85 1020.1
20260510014523 8 103 1.6 8.0 0.00 0.00 0.00 85 1020.0
20260510013025 8 103 3.2 19.3 0.00 0.00 0.00 85 1019.9
20260510011527 8 103 3.2 14.5 0.00 0.00 0.00 86 1019.7
20260510010019 8 103 4.8 14.5 0.00 0.00 0.00 85 1019.7
20260510004526 8 103 6.4 14.5 0.00 0.00 0.00 86 1019.6
20260510003017 8 103 6.4 14.5 0.00 0.00 0.00 86 1019.7
20260510001513 8 103 4.8 19.3 0.00 0.00 0.00 86 1019.9
20260510000012 8 103 6.4 14.5 0.00 0.00 0.00 86 1020.0
20260509234510 8 103 6.4 14.5 0.00 0.00 0.00 86 1020.0
20260509233009 8 103 4.8 14.5 0.00 0.00 0.00 86 1020.0
20260509231508 8 103 3.2 12.9 0.00 0.00 0.00 87 1020.0
20260509230008 8 103 3.2 14.5 0.00 0.00 0.00 87 1019.9
20260509224507 8 103 6.4 14.5 0.00 0.00 0.00 87 1019.9
20260509223003 8 103 1.6 16.1 0.00 0.00 0.00 87 1019.8
20260509221502 8 103 6.4 19.3 0.00 0.00 0.00 86 1019.8
20260509214629 9 103 6.4 17.7 0.00 0.00 0.00 86 1019.8
20260509213056 9 103 4.8 17.7 0.00 0.00 0.00 85 1019.7
20260509211555 10 103 4.8 16.1 0.00 0.00 0.00 85 1019.5